Weather History for Sulphur Springs, TX

Change the Weather History Date:

Friday, November 25, 2011

  Actual Average (KGVT) Record (KGVT)
Temperature  
Mean Temperature 55 °F -  
Max Temperature 69 °F 59 °F 75 °F (1998)
Min Temperature 41 °F 44 °F 26 °F (2003)
Degree Days  
Heating Degree Days 10    
Growing Degree Days 5 (Base 50)    
Moisture  
Dew Point 48 °F    
Average Humidity 79    
Maximum Humidity 100    
Minimum Humidity 53    
Precipitation  
Precipitation 0.00 in - - ()
Sea Level Pressure  
Sea Level Pressure 30.08 in    
Wind  
Wind Speed 5 mph (SSE)    
Max Wind Speed 16 mph    
Max Gust Speed 21 mph    
Visibility 5 miles    
Events Fog    
Averages and records for this station are not official NWS values.
T = Trace of Precipitation, MM = Missing Value Source: NWS Daily Summary

Daily Weather History Graph

Daily Weather History Graph

Search for Another Location

Airport:

Trip Planner

Search our weather history database for the weather conditions in past years. The results will help you decide how hot, cold, wet, or windy it might be!

Date:

Astronomy

Nov. 25, 2011 Rise Set
Actual Time 7:02 AM CST 5:16 PM CST
Civil Twilight 6:35 AM CST 5:43 PM CST
Nautical Twilight 6:05 AM CST 6:13 PM CST
Astronomical Twilight 5:35 AM CST 6:43 PM CST
Moon 7:28 AM CST (11/25) 5:48 PM CST (11/25)
Length of Visible Light 11h 07m
Length of Day
10h 14m
New Moon, 0% of the Moon is Illuminated
Nov 25
New Moon
Dec 2
First Quarter
Dec 10
Full
Dec 17
Last Quarter
Dec 24
New

Hourly Weather History & Observations

Time (CST) Temp. Windchill Dew Point Humidity Pressure Visibility Wind Dir Wind Speed Gust Speed Precip Events Conditions
12:15 AM 42.8 °F 40.1 °F 42.8 °F 100% 30.21 in 0.5 mi ESE 4.6 mph - N/A Fog Fog
1:15 AM 42.8 °F 41.1 °F 41.0 °F 93% 30.19 in 0.2 mi East 3.5 mph - N/A Fog Fog
1:35 AM 42.8 °F - 41.0 °F 93% 30.19 in 0.2 mi Calm Calm - N/A Fog Fog
1:55 AM 42.8 °F - 41.0 °F 93% 30.19 in 0.2 mi Calm Calm - N/A Fog Fog
2:15 AM 42.8 °F - 41.0 °F 93% 30.19 in 0.2 mi Calm Calm - N/A Fog Fog
2:35 AM 42.8 °F - 41.0 °F 93% 30.19 in 0.2 mi Calm Calm - N/A Fog Fog
2:55 AM 41.0 °F - 41.0 °F 100% 30.18 in 0.2 mi Calm Calm - N/A Fog Fog
3:15 AM 41.0 °F - 41.0 °F 100% 30.18 in 0.2 mi Calm Calm - N/A Fog Fog
3:35 AM 42.8 °F - 41.0 °F 93% 30.18 in 0.2 mi Calm Calm - N/A Fog Fog
4:35 AM 42.8 °F - 42.8 °F 100% 30.17 in 0.2 mi Calm Calm - N/A Fog Fog
4:55 AM 44.6 °F - 42.8 °F 93% 30.17 in 0.2 mi Calm Calm - N/A Fog Fog
5:15 AM 44.6 °F - 42.8 °F 93% 30.18 in 0.5 mi Calm Calm - N/A Fog Fog
5:35 AM 44.6 °F - 44.6 °F 100% 30.18 in 0.5 mi Calm Calm - N/A Fog Fog
5:55 AM 44.6 °F 43.1 °F 44.6 °F 100% 30.17 in 0.2 mi ESE 3.5 mph - N/A Fog Fog
6:15 AM 44.6 °F 42.2 °F 44.6 °F 100% 30.17 in 0.5 mi SE 4.6 mph - N/A Fog Fog
6:35 AM 44.6 °F 43.1 °F 42.8 °F 93% 30.17 in 0.2 mi ESE 3.5 mph - N/A Fog Fog
6:55 AM 44.6 °F 42.2 °F 42.8 °F 93% 30.17 in 0.2 mi East 4.6 mph - N/A Fog Fog
7:15 AM 44.6 °F 42.2 °F 42.8 °F 93% 30.17 in 0.2 mi ESE 4.6 mph - N/A Fog Fog
7:55 AM 46.4 °F 42.9 °F 44.6 °F 93% 30.16 in 0.2 mi SE 6.9 mph - N/A Fog Fog
8:15 AM 46.4 °F 42.9 °F 44.6 °F 93% 30.15 in 0.5 mi SE 6.9 mph - N/A Fog Fog
8:35 AM 48.2 °F - 46.4 °F 93% 30.14 in 1.8 mi SE 10.4 mph - N/A   Overcast
8:55 AM 48.2 °F - 46.4 °F 93% 30.14 in 2.5 mi SSE 5.8 mph - N/A   Overcast
9:15 AM 50.0 °F - 50.0 °F 100% 30.14 in 2.5 mi SSE 5.8 mph - N/A   Mist
9:35 AM 51.8 °F - 51.8 °F 100% 30.14 in 4.0 mi SSE 6.9 mph - N/A   Clear
9:55 AM 53.6 °F - 51.8 °F 94% 30.14 in 7.0 mi South 9.2 mph - N/A   Clear
10:15 AM 55.4 °F - 53.6 °F 94% 30.14 in 7.0 mi South 11.5 mph 18.4 mph N/A   Clear
10:55 AM 60.8 °F - 51.8 °F 72% 30.12 in 10.0 mi South 10.4 mph - N/A   Clear
11:15 AM 62.6 °F - 51.8 °F 68% 30.11 in 10.0 mi South 15.0 mph 20.7 mph N/A   Scattered Clouds
11:35 AM 64.4 °F - 51.8 °F 64% 30.09 in 10.0 mi South 12.7 mph - N/A   Scattered Clouds
11:55 AM 64.4 °F - 51.8 °F 64% 30.07 in 10.0 mi SSE 10.4 mph 16.1 mph N/A   Clear
12:15 PM 66.2 °F - 53.6 °F 64% 30.06 in 10.0 mi South 12.7 mph 17.3 mph N/A   Clear
12:35 PM 68.0 °F - 53.6 °F 60% 30.04 in 10.0 mi South 12.7 mph 18.4 mph N/A   Clear
12:55 PM 68.0 °F - 53.6 °F 60% 30.03 in 10.0 mi South 11.5 mph - N/A   Clear
1:15 PM 66.2 °F - 53.6 °F 64% 30.01 in 10.0 mi South 6.9 mph - N/A   Mostly Cloudy
1:35 PM 68.0 °F - 53.6 °F 60% 30.00 in 10.0 mi SSE 11.5 mph 17.3 mph N/A   Scattered Clouds
2:15 PM 68.0 °F - 53.6 °F 60% 29.97 in 4.0 mi SSE 12.7 mph 20.7 mph N/A   Haze
2:35 PM 69.8 °F - 53.6 °F 56% 29.96 in 10.0 mi South 11.5 mph 20.7 mph N/A   Scattered Clouds
3:15 PM 69.8 °F - 53.6 °F 56% 29.96 in 10.0 mi SSE 11.5 mph 19.6 mph N/A   Clear
3:35 PM 69.8 °F - 51.8 °F 53% 29.95 in 4.0 mi SSE 16.1 mph 20.7 mph N/A   Haze
3:55 PM 69.8 °F - 51.8 °F 53% 29.94 in 7.0 mi SSE 10.4 mph - N/A   Clear
4:15 PM 68.0 °F - 51.8 °F 56% 29.94 in 10.0 mi SSE 11.5 mph 19.6 mph N/A   Clear
4:35 PM 68.0 °F - 51.8 °F 56% 29.94 in 10.0 mi SSE 10.4 mph 16.1 mph N/A   Clear
5:15 PM 66.2 °F - 51.8 °F 60% 29.94 in 10.0 mi SSE 9.2 mph - N/A   Clear
5:35 PM 64.4 °F - 51.8 °F 64% 29.94 in 7.0 mi SE 5.8 mph - N/A   Scattered Clouds
5:55 PM 64.4 °F - 51.8 °F 64% 29.94 in 10.0 mi SE 5.8 mph - N/A   Mostly Cloudy
6:15 PM 64.4 °F - 51.8 °F 64% 29.95 in 10.0 mi SE 5.8 mph - N/A   Scattered Clouds
6:35 PM 64.4 °F - 53.6 °F 68% 29.96 in 10.0 mi SE 5.8 mph - N/A   Mostly Cloudy
6:55 PM 64.4 °F - 53.6 °F 68% 29.96 in 10.0 mi SE 4.6 mph - N/A   Overcast
7:35 PM 64.4 °F - 53.6 °F 68% 29.96 in 7.0 mi SE 6.9 mph - N/A   Overcast
8:15 PM 64.4 °F - 53.6 °F 68% 29.96 in 10.0 mi SE 10.4 mph - N/A   Overcast
8:35 PM 64.4 °F - 53.6 °F 68% 29.97 in 5.0 mi SE 9.2 mph - N/A   Haze
8:55 PM 64.4 °F - 53.6 °F 68% 29.97 in 7.0 mi SE 8.1 mph - N/A   Overcast
9:15 PM 64.4 °F - 53.6 °F 68% 29.97 in 7.0 mi SE 9.2 mph - N/A   Overcast
9:35 PM 64.4 °F - 53.6 °F 68% 29.97 in 7.0 mi SE 10.4 mph - N/A   Overcast
10:15 PM 64.4 °F - 53.6 °F 68% 29.95 in 10.0 mi SSE 12.7 mph - N/A   Mostly Cloudy
10:35 PM 64.4 °F - 53.6 °F 68% 29.94 in 7.0 mi SSE 13.8 mph 17.3 mph N/A   Scattered Clouds
10:55 PM 64.4 °F - 53.6 °F 68% 29.94 in 7.0 mi SSE 13.8 mph 21.9 mph N/A   Scattered Clouds
11:35 PM 64.4 °F - 55.4 °F 73% 29.93 in 10.0 mi SSE 13.8 mph 19.6 mph N/A   Scattered Clouds
11:55 PM 64.4 °F - 55.4 °F 73% 29.93 in 7.0 mi SSE 11.5 mph 17.3 mph N/A   Clear